Location: Newark
(13.8625°N, 100.5144°E)
Time: 14:05:02
(UTC+00:00)

LightSail 2 - Pass Details

Date: 14 May 2021
Orbit: 685 x 700 km, 24.0° (Epoch: 11 June)

Event Time Altitude Azimuth Distance (km) Brightness Sun altitude
Rises 13:03:53 0° 217° (SW) 3,055 8.6 -20.2°
Reaches altitude 10° 13:06:51 10° 201° (SSW) 2,141 7.5 -20.9°
Enters shadow 13:08:22 16° 186° (S) 1,788 7.0 -21.2°
